Tracking 20721 objects as of 1-Jun-2020
HD Live streaming from Space Station
objects crossing your sky now

FENGYUN 1C DEB

Track FENGYUN 1C DEB now!
10-day predictions


NORAD ID: 31003
Int'l Code: 1999-025BCV
Perigee: 824.5 km
Apogee: 892.3 km
Inclination: 99.0 °
Period: 102.0 minutes
Semi major axis: 7229 km
RCS: 0.0252 m2 (small)
Launch date: May 10, 1999
Source: People's Republic of China (PRC)
Launch site: Taiyaun Space Center, China (TSC)

Note: This is SATELLITE DEBRIS
aabbcc
Your satellite tracking list
Your tracking list is empty




NASA's NSSDC Master Catalog

Two Line Element Set (TLE):
1 31003U 99025BCV 20150.61514963 +.00000621 +00000-0 +35749-3 0  9995
2 31003 098.9742 199.5952 0046841 210.3307 149.5152 14.12369932678779
Source of the keplerian elements: AFSPC